Alice, TX

6:00 PM CDT on April 26, 2017 (GMT -0500)
Alice International

Weather History for KALI - August, 2013

Change the Weather History Date:

Monday, August 12, 2013

  Actual Average Record
Temperature  
Mean Temperature 84 °F -  
Max Temperature 99 °F 96 °F 106 °F (2016)
Min Temperature 71 °F 73 °F 69 °F (2004)
Cooling Degree Days 18    
Growing Degree Days 34 (Base 50)    
Moisture  
Dew Point 73 °F    
Average Humidity 75    
Maximum Humidity 100    
Minimum Humidity 46    
Precipitation  
Precipitation 0.00 in - - ()
Sea Level Pressure  
Sea Level Pressure 30.01 in    
Wind  
Wind Speed 6 mph (SSE)    
Max Wind Speed 17 mph    
Max Gust Speed 21 mph    
Visibility 9 miles    
Events      
Averages and records for this station are not official NWS values.
T = Trace of Precipitation, MM = Missing Value Source: NWS Daily Summary

Daily Weather History Graph

Daily Weather History Graph

Search for Another Location

Airport or City:

Trip Planner

Search our weather history database for the weather conditions in past years. The results will help you decide how hot, cold, wet, or windy it might be!

Date:

Astronomy

Aug. 12, 2013 Rise Set
Actual Time 7:01 AM CDT 8:12 PM CDT
Civil Twilight 6:36 AM CDT 8:37 PM CDT
Nautical Twilight 6:07 AM CDT 9:06 PM CDT
Astronomical Twilight 5:36 AM CDT 9:36 PM CDT
Moon 12:17 PM CDT (8/12) 11:44 PM CDT (8/12)
Length of Visible Light 14h 00m
Length of Day
13h 11m
Waxing Crescent, 31% of the Moon is Illuminated
Aug 12
Waxing Crescent
Aug 14
First Quarter
Aug 20
Full
Aug 28
Last Quarter
Sep 5
New

Hourly Weather History & Observations

Time (CDT) Temp. Heat Index Dew Point Humidity Pressure Visibility Wind Dir Wind Speed Gust Speed Precip Events Conditions
12:53 AM 75.9 °F - 73.0 °F 91% 30.02 in 10.0 mi SSE 5.8 mph - N/A   Clear
1:53 AM 73.9 °F - 73.0 °F 97% 30.02 in 10.0 mi SE 3.5 mph - N/A   Clear
2:53 AM 75.0 °F - 73.0 °F 94% 30.01 in 10.0 mi South 4.6 mph - N/A   Clear
3:53 AM 75.0 °F - 73.0 °F 94% 30.01 in 10.0 mi South 3.5 mph - N/A   Partly Cloudy
4:53 AM 73.9 °F - 73.0 °F 97% 30.01 in 10.0 mi South 3.5 mph - N/A   Clear
5:53 AM 73.0 °F - 72.0 °F 96% 30.01 in 10.0 mi Calm Calm - N/A   Clear
6:27 AM 71.6 °F - 71.6 °F 100% 30.03 in 1.8 mi Calm Calm - N/A   Clear
6:49 AM 71.6 °F - 71.6 °F 100% 30.03 in 3.0 mi Calm Calm - N/A   Clear
6:50 AM 72.0 °F - 71.1 °F 97% 30.03 in 3.0 mi Calm Calm - N/A   Clear
7:53 AM 73.9 °F - 73.9 °F 100% 30.02 in 9.0 mi Calm Calm - N/A   Clear
8:35 AM 77.0 °F - 75.2 °F 94% 30.03 in 10.0 mi NE 3.5 mph - N/A   Partly Cloudy
8:53 AM 79.0 °F - 75.0 °F 88% 30.02 in 10.0 mi Calm Calm - N/A   Partly Cloudy
9:53 AM 84.0 °F 91.9 °F 75.0 °F 74% 30.04 in 10.0 mi SSE 6.9 mph - N/A   Partly Cloudy
10:53 AM 86.0 °F 93.0 °F 73.0 °F 65% 30.05 in 10.0 mi South 6.9 mph - N/A   Partly Cloudy
11:53 AM 90.0 °F 97.9 °F 73.0 °F 57% 30.05 in 10.0 mi SSE 10.4 mph - N/A   Partly Cloudy
12:53 PM 93.0 °F 100.7 °F 72.0 °F 50% 30.04 in 10.0 mi SSE 12.7 mph 17.3 mph N/A   Partly Cloudy
1:53 PM 96.1 °F 104.9 °F 72.0 °F 46% 30.01 in 10.0 mi South 15.0 mph 18.4 mph N/A   Partly Cloudy
2:53 PM 95.0 °F 103.2 °F 72.0 °F 47% 29.99 in 10.0 mi SSE 13.8 mph 19.6 mph N/A   Mostly Cloudy
3:53 PM 95.0 °F 102.5 °F 71.1 °F 46% 29.98 in 10.0 mi SSE 11.5 mph 19.6 mph N/A   Partly Cloudy
4:53 PM 93.9 °F 102.1 °F 72.0 °F 49% 29.96 in 10.0 mi SSE 17.3 mph - N/A   Mostly Cloudy
5:53 PM 96.1 °F 104.9 °F 72.0 °F 46% 29.94 in 10.0 mi SSE 16.1 mph 20.7 mph N/A   Partly Cloudy
6:53 PM 91.9 °F 99.5 °F 72.0 °F 52% 29.94 in 10.0 mi SSE 15.0 mph 20.7 mph N/A   Clear
7:53 PM 89.1 °F 92.9 °F 68.0 °F 50% 29.95 in 10.0 mi SE 16.1 mph - N/A   Clear
8:53 PM 84.9 °F 90.1 °F 71.1 °F 63% 29.97 in 10.0 mi SE 8.1 mph - N/A   Clear
9:53 PM 82.9 °F 88.0 °F 72.0 °F 69% 29.98 in 10.0 mi SE 12.7 mph - N/A   Clear
10:53 PM 81.0 °F 86.2 °F 73.9 °F 79% 30.00 in 10.0 mi SE 8.1 mph - N/A   Clear
11:53 PM 80.1 °F 85.1 °F 75.0 °F 85% 30.01 in 10.0 mi SE 6.9 mph - N/A   Clear